sat.trackr.live / text

‹ back to catalog

STARLINK-32874

NORAD 62954 · 2025-029G

PAYLOAD ACTIVE UNKNOWN

§ Identity

Operator
Country
US
Launch date
2025-02-11
Launch site
AFWTR
Launch vehicle
Mass (kg)
RCS (m²)

Purposes: comms

External: N2YO · Heavens-Above · Gunter

§ Orbital elements

Epoch: 2026-05-25T00:00:02.000160Z

Period
93.85 min
Inclination
53.1599°
Eccentricity
0.0001061
Mean motion
15.34380534 rev/d
Perigee alt
462.0 km
Apogee alt
463.5 km
Semi-major
6,840.9 km
B*
2.6990e-4
RAAN
235.3497°
Arg perigee
84.6755°
Mean anomaly
87.9078°
Rev number
588

§ Raw data

STARLINK-328741 62954U 25029G   26145.00002315  .00008748  00000+0  26990-3 0  99982 62954  53.1599 235.3497 0001061  84.6755  87.9078 15.34380534  5882

JSON: /api/v1/satellites/62954 · /tle

For live sub-satellite position, see the globe view (requires WebGL).

§ Visibility from observer

Set your observer location to see the next 7 days of passes ≥ 10°. The values pass through the URL so the page stays shareable.

No JS? Fill the form by hand. The geolocation button needs JavaScript.